User: anonymous
Location: Fountain Hills
(33.6120°N, 111.7170°W)
Time: 03:06:45
(UTC-07:00)
Language:

Hamsat - Orbit

View from above orbital plane
View from above orbital plane
View from above satellite
View from above satellite

Ground track
Ground track

The orbit data is extracted from the following two-line orbital elements,

1 28650U 05017B   14107.93061727  .00004167  00000-0  48880-3 0  7124
2 28650 097.5607 115.9172 0024998 000.8774 359.2481 14.85252304484283
Epoch (UTC): 17 April 2014 22:20:05
Eccentricity: 0.0024998
inclination: 97.5607°
perigee height: 595 km
apogee height: 630 km
right ascension of ascending node: 115.9172°
argument of perigee: 0.8774°
revolutions per day: 14.85252304
mean anomaly at epoch: 359.2481°
orbit number at epoch: 48428

The dashed part of the orbit path shows where the satellite is in the earth's shadow,  

DLR